Weather Roundup
Issued by NWS Springfield, MO

Home | Current Version | Previous Version | Text Only | Print | Product List | Glossary On
Versions: 1 2 3 4 5 6 7 8 9 10 11 12 13 14 15 16 17 18 19 20 21 22 23 24 25 26 27 28 29 30 31 32 33 34 35 36 37 38 39 40 41 42 43 44 45 46 47 48 49 50
000
NZUS99 KSGF 091607
HRRSGF

HOURLY WEATHER
NATIONAL WEATHER SERVICE SPRINGFIELD MO
1100 AM CDT WED JUL 09 2014

......SGF CWA......

CITY           SKY/WX    TMP DP  RH WIND       PRES   REMARKS
SPRINGFIELD    SUNNY     80  57  45 N7        30.10R
JOPLIN         SUNNY     82  58  43 N3        30.10S
WEST PLAINS    MOSUNNY   80  62  54 NW8       30.09R
ROLLA          SUNNY     78  62  57 W12G20    30.06S
OSAGE BEACH    SUNNY     79  63  57 W7        30.07S
BRANSON        MOSUNNY   84  61  45 N6        30.10F

......SURROUNDING SGF CWA......

CITY           SKY/WX    TMP DP  RH WIND       PRES   REMARKS
CHANUTE        SUNNY     81  53  37 CALM      30.10S
PARSONS        SUNNY     83  60  45 VRB3      30.10S
COFFEYVILLE    SUNNY     84  62  47 CALM      30.08S
EMPORIA        SUNNY     80  55  42 VRB5      30.10S
GROVE OK       MOSUNNY   82  64  54 W5        30.10S
ROGERS AR      MOSUNNY   81  57  43 N5        30.12R
SILOAM SPRINGS MOSUNNY   81  61  50 NW5       30.11S
HARRISON AR    SUNNY     80  63  55 NW6       30.10S
NEAR YELLVILLE MOSUNNY   81  64  57 SE3       30.08S

......KANSAS AND MISSOURI......

CITY           SKY/WX    TMP DP  RH WIND       PRES   REMARKS
KANSAS CTY INT SUNNY     78  63  59 N3        30.09S
DOWNTOWN KC    SUNNY     78  63  59 CALM      30.08S
COLUMBIA       SUNNY     80  64  58 W8        30.05S
SEDALIA        SUNNY     79  65  62 W6        30.07S
ST JOSEPH      SUNNY     75  65  70 NW3       30.08F
ST LOUIS       MOSUNNY   83  63  50 W10       30.02S
SPIRIT OF STL  SUNNY     80  63  55 W7        30.01S
WICHITA        MOSUNNY   81  59  47 S7        30.10R
TOPEKA         SUNNY     81  63  54 N6        30.09S
OLATHE         SUNNY     78  61  55 NW8       30.09R

......TENNESSEE......

CITY           SKY/WX    TMP DP  RH WIND       PRES   REMARKS
MEMPHIS        CLOUDY    78  70  76 W10       30.05R
NASHVILLE      PTSUNNY   77  69  76 W5        30.03S

......ARKANSAS.......

CITY           SKY/WX    TMP DP  RH WIND       PRES   REMARKS
FAYETTEVILLE   MOSUNNY   80  62  54 CALM      30.10S
FT SMITH       CLOUDY    78  72  81 SW6       30.08R
LITTLE ROCK    CLOUDY    78  69  73 W9        30.06R

......OKLAHOMA.......

CITY           SKY/WX    TMP DP  RH WIND       PRES   REMARKS
TULSA          PTSUNNY   84  64  50 CALM      30.07S
PONCA CITY     MOSUNNY   82  63  52 S5        30.09R
MCALESTER      CLOUDY    72  70  93 W7        30.11S
OKLAHOMA CITY  CLOUDY    70  67  90 SE8       30.09F THUNDER

......IOWA............

CITY           SKY/WX    TMP DP  RH WIND       PRES   REMARKS
DES MOINES     SUNNY     75  54  47 NW7       30.06R
QUAD CITIES      N/A     74  55  51 NW10      30.00R

......ILLINOIS........

CITY           SKY/WX    TMP DP  RH WIND       PRES   REMARKS
QUINCY         SUNNY     76  59  55 NW12      30.03R
CHICAGO        MOSUNNY   75  54  47 NW9       29.94R



USA.gov is the U.S. government's official web portal to all federal, state and local government web resources and services.